#timestamp,LO_Frequency,Hit,StdDev 
1644487215.8,286046991.7,N
1644487235.6,286046994.0,N
1644487255.5,286046997.7,N
1644487275.3,286046996.1,N
1644487295.2,286046993.4,N
1644487315.9,286046996.1,N
1644487335.7,286046994.4,N
1644487355.6,286046998.1,N
1644487375.4,286046998.1,N
1644487395.2,286047000.4,N
1644487415.1,286046998.4,N
1644487416.0,286046998.4,N
1644487435.8,286046998.9,N
1644487455.7,286047003.2,N
1644487475.5,286047001.6,N
1644487495.3,286047005.4,N
1644487515.2,286047006.0,N
1644487535.0,286047000.5,N
1644487535.9,286047000.5,N
1644487555.7,286046998.3,N
1644487575.6,286046996.6,N
1644487595.4,286047000.2,N
1644487615.3,286046998.1,N
1644487635.1,286046997.7,N
1644487636.0,286046997.7,N
1644487655.8,286046992.4,N
1644487675.7,286046990.6,N
1644487695.5,286046990.6,N
1644487715.3,286046992.9,N
1644487735.2,286046994.7,N
1644487755.0,286047001.6,N
1644487755.9,286047001.6,N
1644487775.8,286047000.3,N
1644487795.6,286046995.0,N
1644487815.4,286047004.3,N
1644487835.3,286047004.3,N
1644487855.1,286047005.4,N
1644487875.8,286047009.1,N
1644487895.7,286047014.0,Y
1644487915.5,286047011.8,P
1644487935.4,286047008.9,N
1644487955.2,286047001.7,N
1644487975.0,286046997.8,N
1644487975.9,286046997.8,N
1644487995.8,286046994.0,N
1644488015.6,286046994.9,N
1644488035.5,286046998.8,N
1644488055.3,286047002.2,N
1644488075.1,286047001.3,N
1644488095.9,286046997.9,N
1644488115.7,286046991.9,N
1644488135.5,286046994.2,N
1644488155.4,286046992.9,N
1644488175.2,286046994.2,N
1644488195.1,286047002.7,N
1644488196.0,286047002.7,N
1644488215.8,286047001.5,N
1644488235.6,286047004.8,N
1644488255.5,286047010.1,N
1644488275.3,286047007.9,N
1644488295.1,286047016.2,N
1644488315.9,286047017.9,N
1644488335.7,286047020.2,N
1644488355.6,286047023.5,Y
1644488375.4,286047020.2,P
1644488395.2,286047017.4,N
1644488415.1,286047016.1,N
1644488416.0,286047016.1,N
1644488435.8,286047019.2,Y
1644488455.6,286047000.5,P
1644488475.5,286047002.6,N
1644488495.3,286047003.4,N
1644488515.2,286047005.5,N
1644488535.9,286047003.9,N
1644488555.7,286046998.2,N
1644488575.6,286047002.6,N
1644488595.4,286047008.3,N
1644488615.2,286047013.1,N
1644488635.1,286047017.4,Y
1644488636.0,286047017.4,P
1644488655.8,286047016.4,N
1644488675.7,286047021.7,P
1644488695.5,286047019.2,Y
1644488715.3,286047004.9,P
1644488735.2,286047006.6,N
1644488755.0,286047002.3,N
1644488755.9,286047002.3,N
1644488775.7,286047002.0,N
1644488795.6,286046997.0,N
1644488815.4,286046996.8,N
1644488835.3,286047000.4,N
1644488855.1,286047002.4,N
1644488856.0,286047002.4,N
1644488875.8,286047004.8,N
1644488895.7,286047012.4,N
1644488915.5,286047014.0,N
1644488935.4,286047008.1,N
1644488955.2,286047006.1,N
1644488975.0,286047007.3,N
1644488975.9,286047007.3,N
1644488995.8,286047003.1,N
1644489015.6,286047010.2,N
1644489035.4,286047009.8,N
1644489055.3,286047004.5,N
1644489075.1,286047008.7,N
1644489095.9,286047007.4,N
1644489115.7,286047009.4,N
1644489135.5,286047008.6,N
1644489155.4,286047009.2,N
1644489175.2,286047008.1,N
1644489195.1,286047010.5,N
1644489196.0,286047010.5,N
1644489215.8,286047011.1,N
1644489235.6,286047010.8,N
1644489255.5,286047007.5,N
1644489275.3,286047011.1,N
1644489295.1,286047011.8,N
1644489315.9,286047007.5,N
1644489335.7,286047003.1,N
1644489355.6,286047005.6,N
1644489375.4,286047006.8,N
1644489395.2,286047005.3,N
1644489415.1,286047002.3,N
1644489416.0,286047002.3,N
1644489435.8,286047001.7,N
1644489455.6,286046998.9,N
1644489475.5,286046996.5,N
1644489495.3,286047000.8,N
1644489515.2,286047003.9,N
1644489535.9,286047001.9,N
1644489555.7,286047006.7,N
1644489575.6,286047003.5,N
1644489595.4,286047000.6,N
1644489615.2,286046994.8,N
1644489635.1,286046995.3,N
1644489636.0,286046995.3,N
1644489655.8,286047007.6,N
1644489675.7,286047009.0,N
1644489695.5,286047012.3,N
1644489715.3,286047003.8,N
1644489735.2,286047003.5,N
1644489755.0,286047007.5,N
1644489755.9,286047007.5,N
1644489775.8,286047004.9,N
1644489795.6,286047005.2,N
1644489815.4,286047005.2,N
1644489835.3,286047001.0,N
1644489855.1,286047002.6,N
1644489875.8,286046998.2,N
1644489895.7,286046990.1,N
1644489915.5,286046994.2,N
1644489935.3,286046993.4,N
1644489955.2,286046993.9,N
1644489975.0,286046993.7,N
1644489975.9,286046993.7,N
1644489995.8,286046991.4,N
1644490015.6,286046990.0,N
1644490035.4,286046992.5,N
1644490055.3,286046994.7,N
1644490075.1,286046996.9,N
1644490095.9,286046994.5,N
1644490115.7,286046991.1,N
1644490135.5,286046991.4,N
1644490155.4,286046993.8,N
1644490175.2,286046993.2,N
1644490195.0,286046991.5,N
1644490195.9,286046991.5,N
1644490215.8,286046990.1,N
1644490235.6,286046987.6,N
1644490255.5,286046992.8,N
1644490275.3,286046986.2,N
1644490295.1,286046986.5,N
1644490315.9,286046989.1,N
1644490335.7,286046980.4,Y
1644490355.5,286046984.7,P
1644490375.4,286046986.9,N
1644490395.2,286046985.5,P
1644490415.1,286046987.6,Y
1644490416.0,286046987.6,P
1644490435.8,286047003.9,P
1644490455.6,286047003.7,N
1644490475.5,286047006.1,N
1644490495.3,286047001.2,N
1644490515.2,286047001.5,N
1644490535.9,286047004.2,N
1644490555.7,286047009.4,N
1644490575.6,286047016.9,N
1644490595.4,286047012.1,N
1644490615.2,286047012.4,N
1644490635.1,286047011.1,N
1644490636.0,286047011.1,N
1644490655.8,286047011.5,N
1644490675.7,286047011.9,N
1644490695.5,286047009.5,N
1644490715.3,286047009.7,N
1644490735.2,286047010.5,N
1644490755.9,286047009.9,N
1644490775.7,286047004.1,N
1644490795.6,286046997.6,N
